EW3857 Weather Reports


Display with metric or nautical units.
time (UTC)temp
F
wind
direction
speed
MPH
gust
MPH
rain 1hr
in
rain 24hr
in
rain mn
in
humidity
%
barometer
mb
20260505034653 57 270 0.0 0.0 0.00 0.00 0.00 85 1015.9
20260505034150 57 270 0.0 0.0 0.00 0.00 0.00 85 1016.0
20260505033646 57 270 0.0 0.0 0.00 0.00 0.00 85 1016.0
20260505033145 57 271 0.0 0.0 0.00 0.00 0.00 85 1016.0
20260505032642 58 272 0.0 0.0 0.00 0.00 0.00 84 1016.1
20260505032133 57 273 0.0 0.0 0.00 0.00 0.00 84 1015.8
20260505031630 58 273 0.0 0.0 0.00 0.00 0.00 83 1016.0
20260505031126 58 272 0.0 0.0 0.00 0.00 0.00 83 1015.9
20260505030624 58 271 0.0 0.0 0.00 0.00 0.00 83 1015.9
20260505030119 58 271 0.0 0.0 0.00 0.00 0.00 82 1015.8
20260505025615 58 271 0.0 0.0 0.00 0.00 0.00 82 1016.2
20260505025114 59 271 0.0 0.0 0.00 0.00 0.00 81 1016.1
20260505024611 59 271 0.0 0.0 0.00 0.00 0.00 80 1016.1
20260505024108 59 275 0.0 0.0 0.00 0.00 0.00 80 1016.1
20260505023606 59 275 0.0 0.0 0.00 0.00 0.00 80 1015.9
20260505023103 60 277 1.0 1.0 0.00 0.00 0.00 79 1015.8
20260505022600 60 273 1.0 1.0 0.00 0.00 0.00 79 1015.8
20260505022057 60 274 0.0 0.0 0.00 0.00 0.00 78 1015.7
20260505021554 60 274 1.0 2.0 0.00 0.00 0.00 78 1015.7
20260505021051 60 278 1.0 1.0 0.00 0.00 0.00 77 1015.6
20260505020550 61 273 1.0 1.0 0.00 0.00 0.00 77 1015.5
20260505020048 61 278 1.0 1.0 0.00 0.00 0.00 76 1015.7
20260505015545 61 271 1.0 1.0 0.00 0.00 0.00 77 1015.8
20260505015041 62 275 2.0 2.0 0.00 0.00 0.00 76 1015.5
20260505014538 62 273 1.0 1.0 0.00 0.00 0.00 76 1015.6
20260505014035 62 273 1.0 1.0 0.00 0.00 0.00 76 1015.4
20260505013532 63 270 0.0 0.0 0.00 0.00 0.00 74 1015.4
20260505013030 63 270 0.0 0.0 0.00 0.00 0.00 73 1015.5
20260505012528 64 274 0.0 1.0 0.00 0.00 0.00 71 1015.5
20260505012025 64 277 0.0 0.0 0.00 0.00 0.00 70 1015.3
20260505011520 64 271 0.0 0.0 0.00 0.00 0.00 69 1015.4
20260505011018 65 268 0.0 0.0 0.00 0.00 0.00 66 1015.3
20260505010513 66 268 0.0 0.0 0.00 0.00 0.00 65 1015.0
20260505010010 66 266 0.0 1.0 0.00 0.00 0.00 65 1015.2
20260505005506 67 269 1.0 1.0 0.00 0.00 0.00 63 1015.1
20260505005004 67 267 1.0 1.0 0.00 0.00 0.00 62 1015.0
20260505004501 68 267 1.0 1.0 0.00 0.00 0.00 58 1014.8
20260505003957 69 269 0.0 0.0 0.00 0.00 0.00 54 1014.8
20260505003455 69 255 0.0 0.0 0.00 0.00 0.00 52 1014.8
20260505002950 70 255 0.0 0.0 0.00 0.00 0.00 54 1014.9
20260505002447 70 261 0.0 0.0 0.00 0.00 0.00 50 1014.9
20260505001945 71 264 0.0 0.0 0.00 0.00 0.00 50 1014.7
20260505001442 71 264 0.0 0.0 0.00 0.00 0.00 50 1014.8
20260505000939 72 264 0.0 0.0 0.00 0.00 0.00 50 1014.8
20260505000437 72 264 0.0 0.0 0.00 0.00 0.00 49 1014.7
20260504235934 73 254 1.0 1.0 0.00 0.00 0.00 49 1014.7
20260504235431 73 262 0.0 0.0 0.00 0.00 0.00 48 1014.8
20260504234927 74 250 1.0 1.0 0.00 0.00 0.00 48 1014.7
20260504234425 74 240 2.0 2.0 0.00 0.00 0.00 47 1014.6
20260504233921 74 236 1.0 1.0 0.00 0.00 0.00 48 1014.8
20260504233417 74 268 1.0 2.0 0.00 0.00 0.00 46 1014.9
20260504232914 75 252 1.0 1.0 0.00 0.00 0.00 46 1015.0
20260504232411 75 220 2.0 2.0 0.00 0.00 0.00 44 1014.9
20260504231908 75 239 4.0 7.0 0.00 0.00 0.00 45 1014.9
20260504231404 75 199 3.0 5.0 0.00 0.00 0.00 45 1014.9
20260504230901 75 223 4.0 6.0 0.00 0.00 0.00 43 1015.0
20260504230358 75 224 2.0 2.0 0.00 0.00 0.00 45 1015.2
20260504225857 75 220 1.0 2.0 0.00 0.00 0.00 44 1014.8
20260504225353 75 210 3.0 5.0 0.00 0.00 0.00 44 1014.9
20260504224851 76 242 1.0 1.0 0.00 0.00 0.00 46 1015.1
20260504224347 76 233 3.0 3.0 0.00 0.00 0.00 45 1015.0
20260504223844 76 235 2.0 2.0 0.00 0.00 0.00 45 1015.4
20260504223339 76 147 3.0 5.0 0.00 0.00 0.00 43 1015.0
20260504222836 76 204 4.0 6.0 0.00 0.00 0.00 43 1015.3
20260504222333 77 175 3.0 5.0 0.00 0.00 0.00 44 1015.3
20260504221832 77 35 4.0 5.0 0.00 0.00 0.00 44 1015.2
20260504221328 77 190 4.0 6.0 0.00 0.00 0.00 44 1015.0
20260504220825 77 212 3.0 5.0 0.00 0.00 0.00 45 1015.3
20260504220322 77 227 2.0 3.0 0.00 0.00 0.00 46 1015.2
20260504215819 77 269 2.0 2.0 0.00 0.00 0.00 44 1015.5
20260504215315 76 220 4.0 6.0 0.00 0.00 0.00 44 1015.6
20260504214811 76 203 4.0 5.0 0.00 0.00 0.00 44 1015.4
20260504214308 76 217 3.0 3.0 0.00 0.00 0.00 47 1015.5
20260504213805 76 211 3.0 5.0 0.00 0.00 0.00 45 1015.4
20260504213301 76 258 1.0 1.0 0.00 0.00 0.00 44 1015.1
20260504212759 76 235 2.0 5.0 0.00 0.00 0.00 44 1015.4
20260504212254 76 225 2.0 3.0 0.00 0.00 0.00 44 1015.5
20260504211752 76 245 3.0 3.0 0.00 0.00 0.00 47 1015.3
20260504211248 76 212 5.0 6.0 0.00 0.00 0.00 44 1015.3
20260504210746 76 270 3.0 5.0 0.00 0.00 0.00 45 1015.4
20260504210243 76 241 1.0 1.0 0.00 0.00 0.00 46 1015.5
20260504205740 76 219 2.0 3.0 0.00 0.00 0.00 47 1015.4
20260504205238 76 186 4.0 5.0 0.00 0.00 0.00 48 1015.5
20260504204736 76 163 4.0 6.0 0.00 0.00 0.00 46 1015.7
20260504204234 76 196 2.0 2.0 0.00 0.00 0.00 46 1015.7
20260504203733 77 182 3.0 3.0 0.00 0.00 0.00 46 1015.8
20260504203230 76 198 6.0 8.0 0.00 0.00 0.00 45 1015.7
20260504202729 77 230 4.0 6.0 0.00 0.00 0.00 42 1015.8
20260504202227 77 220 0.0 1.0 0.00 0.00 0.00 41 1015.9
20260504201724 77 228 2.0 2.0 0.00 0.00 0.00 43 1015.9
20260504201221 77 157 3.0 5.0 0.00 0.00 0.00 47 1016.0
20260504200719 77 178 3.0 5.0 0.00 0.00 0.00 46 1016.0
20260504200214 77 229 5.0 8.0 0.00 0.00 0.00 46 1016.1
20260504195711 76 223 4.0 6.0 0.00 0.00 0.00 51 1016.2
20260504195207 76 201 3.0 5.0 0.00 0.00 0.00 49 1016.0
20260504194704 77 202 3.0 3.0 0.00 0.00 0.00 48 1016.1
20260504194200 77 195 5.0 6.0 0.00 0.00 0.00 47 1016.3
20260504193657 78 201 3.0 5.0 0.00 0.00 0.00 45 1016.4
20260504193155 76 219 4.0 6.0 0.00 0.00 0.00 47 1016.4
20260504192652 78 181 3.0 6.0 0.00 0.00 0.00 47 1016.5
20260504192150 78 158 0.0 1.0 0.00 0.00 0.00 47 1016.4
20260504191648 77 233 2.0 2.0 0.00 0.00 0.00 50 1016.7
20260504191144 76 220 1.0 2.0 0.00 0.00 0.00 50 1016.6
20260504190641 76 225 1.0 1.0 0.00 0.00 0.00 47 1016.9
20260504190137 76 169 3.0 3.0 0.00 0.00 0.00 49 1017.1
20260504185634 75 186 3.0 5.0 0.00 0.00 0.00 51 1017.1
20260504185130 75 180 3.0 3.0 0.00 0.00 0.00 50 1017.1
20260504184626 74 202 4.0 5.0 0.00 0.00 0.00 50 1017.4
20260504184121 74 189 4.0 6.0 0.00 0.00 0.00 52 1017.4
20260504183619 74 176 5.0 6.0 0.00 0.00 0.00 52 1017.5
20260504183116 74 209 1.0 2.0 0.00 0.00 0.00 52 1017.4
20260504182614 74 164 5.0 7.0 0.00 0.00 0.00 53 1017.5
20260504182111 75 157 6.0 6.0 0.00 0.00 0.00 52 1017.7
20260504181609 75 225 3.0 3.0 0.00 0.00 0.00 53 1017.5
20260504181106 75 198 3.0 5.0 0.00 0.00 0.00 51 1017.5
20260504180605 75 198 2.0 3.0 0.00 0.00 0.00 55 1017.6
20260504180104 74 168 5.0 6.0 0.00 0.00 0.00 52 1017.7
20260504175600 74 197 7.0 8.0 0.00 0.00 0.00 55 1017.7
20260504175057 75 184 6.0 8.0 0.00 0.00 0.00 55 1018.0
20260504174555 74 189 3.0 3.0 0.00 0.00 0.00 55 1017.9
20260504174051 74 246 1.0 1.0 0.00 0.00 0.00 55 1018.0
20260504173548 74 214 4.0 5.0 0.00 0.00 0.00 52 1018.0
20260504173046 75 145 3.0 3.0 0.00 0.00 0.00 53 1018.2
20260504172542 75 202 3.0 5.0 0.00 0.00 0.00 50 1018.3
20260504172038 75 177 1.0 1.0 0.00 0.00 0.00 52 1018.3
20260504171535 74 193 4.0 5.0 0.00 0.00 0.00 54 1018.3
20260504171032 75 174 5.0 8.0 0.00 0.00 0.00 52 1018.4
20260504170528 77 153 4.0 5.0 0.00 0.00 0.00 49 1018.4
20260504150912 69 200 4.0 5.0 0.00 0.00 0.00 58 1019.2
20260504150409 69 182 2.0 3.0 0.00 0.00 0.00 57 1019.4
20260504140835 60 136 3.0 5.0 0.00 0.00 0.00 74 1020.0
20260504140331 60 142 1.0 2.0 0.00 0.00 0.00 74 1020.0
20260504130800 56 138 2.0 2.0 0.00 0.00 0.00 81 1020.1
20260504130256 56 227 0.0 1.0 0.00 0.00 0.00 81 1020.1
20260504120220 51 272 0.0 1.0 0.00 0.00 0.00 91 1019.9
20260504110647 46 266 2.0 2.0 0.00 0.00 0.00 95 1019.5
20260504110143 46 270 0.0 0.0 0.00 0.00 0.00 95 1019.4
20260504100609 45 268 0.0 0.0 0.00 0.00 0.00 94 1018.9
20260504100107 45 274 0.0 0.0 0.00 0.00 0.00 94 1019.3
20260504082003 46 270 0.0 1.0 0.00 0.00 0.00 92 1018.9
20260504081500 46 271 0.0 0.0 0.00 0.00 0.00 91 1018.9
20260504080949 46 272 1.0 1.0 0.00 0.00 0.00 91 1019.0
20260504080447 46 272 0.0 0.0 0.00 0.00 0.00 91 1019.2
20260504050253 48 275 0.0 0.0 0.00 0.00 0.00 88 1020.0
20260504045750 48 276 0.0 0.0 0.00 0.00 0.00 87 1020.1
20260504045245 48 276 1.0 1.0 0.00 0.00 0.00 87 1020.1
20260504044743 48 277 1.0 1.0 0.00 0.00 0.00 85 1020.2
20260504044240 48 272 0.0 0.0 0.00 0.00 0.00 85 1019.9
20260504043737 48 272 0.0 0.0 0.00 0.00 0.00 85 1020.1
20260504043234 48 272 0.0 0.0 0.00 0.00 0.00 84 1020.2
20260504042732 48 272 0.0 0.0 0.00 0.00 0.00 85 1020.5
20260504042228 48 273 0.0 0.0 0.00 0.00 0.00 85 1020.2
20260504041724 48 274 0.0 0.0 0.00 0.00 0.00 85 1019.9
20260504041220 49 275 0.0 0.0 0.00 0.00 0.00 85 1020.2
20260504040717 49 275 0.0 0.0 0.00 0.00 0.00 85 1020.4
20260504040214 49 275 0.0 0.0 0.00 0.00 0.00 83 1020.3
20260504035710 49 276 0.0 1.0 0.00 0.00 0.00 83 1020.4
20260504035208 49 269 1.0 1.0 0.00 0.00 0.00 84 1020.6